SKY MUSTER 1 (NBN1A)

Last updated on Wed Jul 02 2025 00:02:46 GMT+0000 (Coordinated Universal Time)

1 40940U 15054A 25182.55739487 -.00000276 00000+0 00000+0 0 9992 2 40940 0.0207 15.2856 0001717 82.7161 162.7423 1.00268766 35746
UTC large
Height (km)
Speed (km/s)
/
Latitude / Longitude
Inclination (degrees)
Orbital Period (minutes)
Azimuth
Elevation
Range (km)
Doppler Factor

Next 0 passes for location: London (51.5072 / 0.1276)

Sorry there are no passes over London.